Details From HCMH - EGAL INTL
To OOSA - SALALAH
Flight Number -
Tags decoded
Created
Modified
Stats Distance 788 nm / 1,460 km
Max Altitude 0 ft / 0 m
Waypoints 4
Social Downloads 0
Likes 0
Share VATSIM

Download

Looking for another format? Having issues loading an existing format? Contact us
Advertisement - Login to hide

Notes

Requested: HCMH EGROV RAPDO OOSA

Route

HCMH EGROV RAPDO OOSA

ID Type Via Altitude Latitude Longitude Leg Dist Tot Dist Heading (true) Name
O HCMH APT - 0 ft / 0 m 9.51817˚ 44.08876˚ - 0 nm - EGAL INTL
EGROV FIX - 0 ft / 0 m 11.34528˚ 45.98250˚ 156 nm 156 nm 45° / 46° -
RAPDO FIX - 0 ft / 0 m 13.38806˚ 52.25889˚ 388 nm 544 nm 71° / 72° -
O OOSA APT - 0 ft / 0 m 17.03662˚ 54.09662˚ 243 nm 788 nm 26° / 26° SALALAH

Altitude Profile

Advertisement - Login to hide

Weather


0- 5 10 15 20 25 30 35+ Temperature / ° C

Clouds and Precipitation
Forecast for 2018-05-24 12:00 UTC. Updated 2 hours ago

Ground ~20,000 ft ~40,000 ft Winds

HCMH

Details ICAO HCMH (HGA)
Name EGAL INTL
Region Somalia
Timezone Africa/Mogadishu (UTC+3.0)
Stats Elevation 4,423 ft / 1,348 m (AMSL)
Location 9.518166° 44.088758°
Runways 1
Magnetic Variation 1.467° E

METAR

HCMH 241000Z 23009KT 9999 BKN020 28/16 Q1016

Decode

TAF

Not found

Departure Runways

ID Width Length Bearing (true) Bearing (mag) Surface Threshold Offset Overrun Length
06 148 ft / 45 m 8,090 ft / 2,466 m 55.26° 53.79° Asphalt 0 ft / 0 m 0 ft / 0 m
24 148 ft / 45 m 8,090 ft / 2,466 m 235.26° 233.79° Asphalt 0 ft / 0 m 0 ft / 0 m

OOSA

Details ICAO OOSA (SLL)
Name SALALAH
Region Oman
Timezone Asia/Muscat (UTC+4.0)
Stats Elevation 73 ft / 22 m (AMSL)
Location 17.036616° 54.096616°
Runways 2
Magnetic Variation 0.900° E

METAR

OOSA 240950Z 09015KT 8000 -RA SCT012 OVC020 30/25 Q1002 NOSIG

Decode

TAF

TAF OOSA 232340Z 2400/2506 36010KT 7000 FEW025 OVC250 BECMG 2407/2409 10018KT BECMG 2410/2412 03025KT 4000 RA FEW020 BKN025 OVC040

Decode

Destination Runways

ID Width Length Bearing (true) Bearing (mag) Surface Threshold Offset Overrun Length
07 148 ft / 45 m 10,960 ft / 3,341 m 70.68° 69.78° Asphalt 0 ft / 0 m 197 ft / 60 m
17 59 ft / 18 m 4,217 ft / 1,285 m 174.11° 173.21° Dirt 0 ft / 0 m 5,016 ft / 1,529 m
25 148 ft / 45 m 10,960 ft / 3,341 m 250.69° 249.79° Asphalt 0 ft / 0 m 197 ft / 60 m
35 59 ft / 18 m 4,217 ft / 1,285 m 354.11° 353.21° Dirt 0 ft / 0 m 4,392 ft / 1,339 m

Approach Navaids

Runway Type Ident Frequency Range Bearing (true) Bearing (mag) Slope Elevation
25 Localiser ISL 110.10 MHz 18 nm / 33 km 250.67° 249.77° - 73 ft / 22 m (AMSL)
25 Glidescope ISL 110.10 MHz 10 nm / 19 km 250.68° 249.78° 3.08° 73 ft / 22 m (AMSL)
25 DME ISL 110.10 MHz 18 nm / 33 km - - - 73 ft / 22 m (AMSL)

Popular Alternatives